Regional Weather Roundup
Issued by NWS

Home | Current Version | Previous Version | Graphics & Text | Print | Product List | Glossary On
Versions: 1 2 3 4 5 6 7 8 9 10 11 12 13 14 15 16 17 18 19 20 21 22 23 24 25 26 27 28 29 30 31 32 33 34 35 36 37 38 39 40 41 42 43 44 45 46 47 48 49 50
000
ASUS43 KLMK 191910
RWRKY
KENTUCKY REGIONAL WEATHER ROUNDUP
NATIONAL WEATHER SERVICE LOUISVILLE KY
200 PM EST FRI JAN 19 2018

NOTE "FAIR" INDICATES FEW OR NO CLOUDS BELOW 12,000 FEET
WITH NO SIGNIFICANT WEATHER AND/OR OBSTRUCTIONS TO VISIBILITY.

KYZ001>023-026-027-061>063-070>075-192000-
WESTERN AND SOUTH CENTRAL KENTUCKY

CITY           SKY/WX    TMP DP  RH WIND       PRES   REMARKS
PADUCAH        FAIR      39  17  41 SW10      30.16F WCI  32
HENDERSON      FAIR      37  21  52 S14       30.14F WCI  28
OWENSBORO      FAIR      37  22  54 S12       30.15F WCI  29
HOPKINSVILLE   FAIR      42  15  33 SW12      30.18F
BOWLING GREEN  FAIR      38  18  44 SW10      30.21F WCI  31
GLASGOW        FAIR      42  16  36 SW7       30.20F
$$

KYZ024-025-028>034-038-045-046-053-192000-
NORTH CENTRAL KENTUCKY

CITY           SKY/WX    TMP DP  RH WIND       PRES   REMARKS
LOUISVILLE/SDF FAIR      40  18  41 SW8       30.14F WCI  34
LOUISVILLE/LOU FAIR      39  18  42 SW14      30.15F WCI  31
FORT KNOX      SUNNY     36  18  47 S14       30.16F WCI  27
$$

KYZ035>037-039>044-047>052-055>060-089>105-192000-
NORTHEAST KENTUCKY

CITY           SKY/WX    TMP DP  RH WIND       PRES   REMARKS
LEXINGTON      FAIR      37  17  44 SW13G21   30.15F WCI  29
COVINGTON      FAIR      36  19  50 S14G21    30.08F WCI  27
FRANKFORT      FAIR      38  16  40 S12       30.13F WCI  30
$$

KYZ054-064>069-076>088-106>120-192000-
SOUTHEAST KENTUCKY

CITY           SKY/WX    TMP DP  RH WIND       PRES   REMARKS
JACKSON        FAIR      41  12  30 CALM      30.16F
LONDON         FAIR      41  11  29 SW9       30.19F
SOMERSET       FAIR      39  14  35 W14       30.22F WCI  31
MIDDLESBORO    FAIR      40  16  37 S10       30.23F WCI  34
MONTICELLO     FAIR      42  20  41 SW15G22   30.22F
$$





USA.gov is the U.S. government's official web portal to all federal, state and local government web resources and services.